{"data":{"norad_id":67655,"epoch":"2026-05-25T02:17:25.476864Z","epoch_age_seconds":56889,"freshness":"FRESH","line1":"1 67655U 26022H   26145.09543376  .00014618  00000+0  45422-3 0  9995","line2":"2 67655  97.2825 178.3749 0001074 107.5277 252.6083 15.33445861 17288","mean_motion":15.33445861,"eccentricity":0.0001074,"inclination_deg":97.2825,"raan_deg":178.3749,"arg_perigee_deg":107.5277,"mean_anomaly_deg":252.6083,"bstar":0.00045422,"rev_number":1728,"period_min":93.906151930329,"perigee_km":464.80560177349,"apogee_km":466.2756237247,"semimajor_km":6843.6776127491,"source":"CELESTRAK","updated_at":"2026-05-25T13:38:21.657821Z"}}